Location: Ayer Observatory
(42.2600°N, 71.0700°W)
Time: 09:35:28
(UTC-04:00)

XW-2A - Pass Details

Date: 09 August 2020
Orbit: 428 x 443 km, 97.3° (Epoch: 21 September)

Event Time Altitude Azimuth Distance (km) Brightness Sun altitude
Exits shadow 21:21:50 16° 185° (S) 1,211 ? -15.1°
Maximum altitude 21:24:17 54° 260° (W) 529 ? -15.4°
Drops below altitude 10° 21:27:30 10° 339° (NNW) 1,535 ? -15.9°
Sets 21:29:33 0° 344° (NNW) 2,406 ? -16.2°
